Wind_Speed
19 18 16 15 15 14 14 13 12 12 11 9 8 7 7 7 7 7 6 6 5 4 4 4 3 3 4 4 3 4 4 4 4 3 4 6 8 8 8 8 8 9 9 10 9 10 11 11 10
18 18 17 16 16 15 15 14 14 13 12 10 9 8 8 7 7 7 6 6 5 4 4 4 3 3 4 4 4 4 3 3 3 3 4 5 7 8 9 9 9 9 9 9 9 11 10 9 9
18 18 18 18 17 17 16 16 16 14 13 11 10 9 9 8 7 7 6 6 5 5 4 4 4 3 3 4 4 3 3 3 3 3 4 6 7 8 8 9 9 8 8 8 9 10 10 9 9
19 19 18 18 17 17 17 16 16 15 13 12 11 10 9 8 7 6 6 6 5 5 5 4 4 4 4 4 4 4 4 4 3 4 5 6 7 8 8 8 8 7 7 7 8 9 10 10 9
19 20 19 18 18 18 18 17 16 15 14 13 12 11 10 8 7 6 6 5 5 5 6 5 5 4 4 5 4 4 4 5 4 5 6 6 7 7 8 9 8 8 8 8 8 10 10 9 9
19 20 20 20 19 19 18 18 17 15 14 13 12 11 11 9 7 7 6 6 5 5 6 6 5 5 5 5 5 5 5 4 4 5 7 7 7 8 8 8 9 9 8 7 7 9 10 9 9
19 20 20 21 20 19 19 19 18 16 14 13 12 12 11 10 8 7 7 6 6 6 6 6 6 5 5 5 5 4 5 5 5 6 6 7 7 8 9 8 9 10 9 8 8 9 9 9 9
18 19 19 21 21 20 19 19 18 16 15 14 13 13 12 11 9 8 8 7 7 6 6 6 6 5 5 4 4 5 6 6 6 6 6 7 7 7 9 10 10 10 10 9 9 9 9 9 9
16 17 19 20 20 19 18 18 18 17 16 15 14 13 13 11 10 9 9 8 8 7 7 8 7 6 5 5 5 6 7 7 7 7 7 7 7 8 9 10 9 9 10 10 10 9 9 9 9
15 16 17 18 18 18 18 18 18 17 17 16 15 14 13 12 11 10 10 10 9 8 8 8 8 7 7 6 6 7 8 8 7 8 8 8 8 9 9 9 9 8 10 10 9 8 8 8 8
14 14 15 16 16 17 18 18 17 17 17 16 15 14 13 12 11 10 10 10 9 9 9 8 8 7 7 7 7 8 8 8 8 9 9 9 9 9 10 9 9 8 9 10 9 8 8 8 8
12 12 14 15 15 16 16 17 17 16 16 16 15 14 14 13 12 11 10 10 9 9 9 9 8 8 7 8 8 8 8 8 9 10 10 10 10 10 9 9 8 8 9 8 8 9 8 8 8
10 11 13 15 15 15 15 16 16 16 15 15 15 14 14 13 12 11 11 10 10 9 8 8 8 8 8 8 8 8 9 9 9 9 9 9 9 9 8 8 8 8 8 8 7 7 7 7 7
8 9 11 13 13 14 14 15 15 16 15 14 14 14 14 14 13 12 12 11 10 10 9 8 7 8 8 8 8 8 9 8 9 9 9 8 8 8 7 7 7 7 7 7 6 6 6 6 6
7 8 9 10 11 12 12 13 14 14 14 14 14 14 14 14 13 13 12 12 11 11 10 9 8 8 8 8 8 8 9 9 8 8 8 7 7 7 7 7 6 6 6 6 6 6 5 6 5
5 6 6 7 8 9 9 11 11 12 12 13 13 13 13 14 14 13 13 12 12 11 10 10 9 8 8 8 8 8 8 8 8 8 7 6 6 6 6 6 5 5 5 5 5 5 4 5 4
4 4 3 4 6 6 7 8 9 10 11 11 11 12 13 13 13 13 12 12 12 11 10 10 9 9 8 8 8 8 8 7 7 7 6 5 5 5 5 5 4 4 4 4 4 4 4 4 5
5 3 1 1 3 4 5 6 6 7 9 9 9 10 11 12 13 12 12 12 12 11 10 10 9 8 8 8 7 7 7 7 6 6 5 4 4 4 4 4 3 3 3 4 4 4 4 5 5
7 6 4 2 2 2 3 3 4 5 6 8 8 8 10 11 11 11 11 11 11 11 10 10 9 8 7 7 7 6 7 6 6 6 5 4 4 4 4 4 3 3 2 3 3 4 3 3 4
11 9 7 6 4 4 2 2 3 3 4 5 6 7 7 9 10 10 10 10 10 10 10 10 9 8 8 7 7 6 6 6 6 5 4 4 4 4 3 3 3 3 3 3 4 3 3 3 3
13 11 9 8 6 6 4 2 1 2 4 4 5 5 6 6 7 8 9 9 9 9 9 9 9 8 8 8 7 6 5 5 4 4 3 3 3 3 2 2 2 3 3 2 2 3 3 3 3
16 13 11 11 9 8 7 5 4 4 4 4 4 4 4 4 6 6 7 7 8 8 8 8 8 8 7 7 7 6 6 5 4 3 3 3 3 2 3 3 3 2 2 2 1 1 2 3 3
19 16 15 13 12 11 9 7 5 6 4 4 3 4 3 3 4 4 4 5 6 6 6 7 7 7 7 6 6 6 5 4 3 3 3 2 2 1 2 2 2 2 2 2 2 3 3 3 4
21 18 17 16 14 13 10 9 7 6 5 4 4 3 4 3 3 3 3 3 4 4 5 5 5 5 5 5 5 4 4 3 2 1 1 1 1 1 1 2 1 2 2 3 3 3 4 4 5
22 20 19 18 17 15 13 11 7 6 6 6 6 5 5 5 4 3 2 3 3 3 4 4 4 3 3 3 3 3 3 3 1 0 1 1 2 2 2 3 3 3 4 4 4 4 4 5 5
24 22 21 20 19 17 15 13 9 8 8 8 8 7 7 6 5 5 3 3 3 3 3 4 3 2 2 3 3 3 3 3 2 1 2 2 2 3 4 5 5 4 4 5 5 5 5 5 6
25 25 23 23 21 20 18 15 11 9 9 10 9 8 8 8 8 7 6 5 5 5 4 4 3 3 3 3 3 2 2 2 2 2 3 3 3 4 5 6 6 6 6 6 6 7 7 8 8
27 25 25 25 23 22 20 17 15 12 10 10 10 10 11 11 11 10 7 7 7 7 5 4 4 4 4 4 4 4 4 4 4 4 4 4 5 5 6 7 8 8 8 8 9 9 10 11 11
29 28 27 26 25 24 22 18 15 14 13 12 11 12 13 12 11 10 9 9 9 9 7 6 6 6 6 6 6 6 6 6 7 7 7 7 8 8 9 9 10 10 11 11 12 12 12 12 13
31 30 29 28 27 25 24 20 16 16 15 14 14 14 13 12 12 12 11 11 11 11 10 9 9 9 9 9 9 9 8 9 9 9 9 9 10 10 11 12 12 13 13 13 14 14 14 14 14
Wind_Direction
66 65 66 66 66 65 62 61 62 60 57 58 63 64 64 68 68 69 68 71 73 72 69 63 64 76 87 90 90 107 114 113 116 125 137 157 158 154 150 150 150 151 155 161 168 167 166 168 166
65 65 64 64 66 66 64 64 65 63 61 60 65 68 68 68 69 70 66 66 69 69 69 66 77 91 95 94 93 105 111 115 123 123 131 150 158 152 149 149 149 149 154 163 164 163 162 166 163
67 67 65 66 67 65 65 64 63 62 61 62 64 66 64 64 66 67 67 65 65 65 64 61 69 86 97 102 105 108 109 110 116 119 137 147 149 153 151 152 150 151 159 165 171 166 170 167 164
67 69 67 66 65 64 63 62 61 59 58 59 62 63 61 58 59 62 65 65 66 69 67 67 68 78 91 103 110 112 108 111 116 118 132 138 144 148 153 154 150 153 163 165 168 171 173 166 167
68 68 67 66 64 63 63 63 61 58 56 56 59 60 57 55 56 59 63 66 62 62 63 66 70 80 93 99 108 123 117 120 124 120 134 140 150 153 157 157 154 156 155 158 166 175 173 169 165
66 67 65 64 61 59 60 59 59 57 54 54 57 60 59 55 54 58 65 66 59 56 58 63 74 82 88 88 94 109 120 128 124 120 129 146 156 158 162 161 157 156 156 154 159 169 172 169 167
68 67 64 62 59 58 58 57 55 54 53 52 54 59 61 58 54 57 62 61 58 56 61 64 72 81 92 99 88 103 111 131 128 127 133 144 160 164 169 168 157 148 150 147 145 152 161 159 163
70 66 63 60 59 58 57 58 55 52 53 52 52 55 59 58 57 59 62 61 58 56 57 59 74 88 94 100 99 102 114 122 125 125 129 132 142 143 157 156 157 152 142 138 145 147 146 151 153
69 64 61 59 60 59 57 57 56 53 52 52 52 53 54 56 57 60 64 63 61 61 60 64 77 90 102 106 108 107 111 117 120 121 122 123 132 133 135 143 147 147 136 141 145 145 145 154 158
71 66 62 60 61 59 56 56 55 52 51 50 50 52 52 54 57 59 62 63 64 64 65 66 74 82 94 105 115 117 120 121 124 123 121 122 130 130 132 139 144 144 143 146 148 149 151 156 161
75 68 64 61 61 59 56 55 53 51 50 49 49 49 48 50 53 56 57 59 62 64 67 70 73 80 92 105 113 114 122 126 124 128 125 128 132 130 129 132 136 140 144 147 148 148 155 161 164
78 69 67 63 60 58 57 55 53 50 49 48 49 48 48 48 49 51 56 59 60 64 66 70 73 78 92 98 100 107 118 123 123 127 127 130 130 127 126 131 135 138 140 145 147 158 164 165 168
80 73 71 68 60 56 55 54 52 49 47 47 47 47 48 48 48 51 56 58 57 61 66 67 74 79 86 95 98 102 111 120 127 127 127 128 130 130 130 136 138 136 138 145 149 156 163 167 163
86 80 76 69 59 54 54 52 50 48 45 46 46 46 46 46 49 55 58 57 57 59 61 64 68 74 83 92 94 101 110 117 120 121 123 128 135 137 138 139 143 139 138 143 146 155 162 164 162
95 88 82 72 61 51 50 49 46 44 43 44 46 46 45 47 51 56 58 57 58 60 62 64 68 75 82 90 91 97 107 112 118 119 125 130 135 142 145 148 150 147 145 149 152 158 166 172 175
127 106 88 77 69 53 46 44 41 38 37 41 45 47 47 50 53 55 57 58 58 59 61 63 67 75 81 85 86 90 104 112 118 120 124 129 138 141 153 157 157 157 160 160 166 175 179 184 195
176 143 117 79 67 55 48 43 39 35 34 36 41 45 48 51 52 54 57 57 57 57 59 61 65 72 80 85 88 93 98 108 115 120 125 130 141 147 154 163 165 168 170 174 180 184 194 201 209
217 208 193 62 55 46 44 42 31 27 28 29 34 41 47 50 50 53 57 56 53 54 58 60 64 70 77 83 89 94 99 101 110 115 116 123 143 153 160 165 169 185 192 197 206 213 213 212 216
229 230 232 260 307 345 14 24 19 19 23 22 25 32 43 47 48 53 56 54 51 51 55 61 65 69 74 79 85 91 98 96 101 108 110 112 120 133 148 153 154 167 184 209 218 216 219 220 223
237 236 240 254 283 304 330 353 5 12 13 8 13 19 33 46 49 52 54 53 53 52 55 60 63 66 72 77 79 85 92 91 87 89 99 113 120 119 123 134 146 152 162 182 203 209 218 215 233
237 238 243 254 277 292 300 292 310 339 349 355 4 6 18 38 49 54 55 51 54 56 57 60 61 64 70 72 75 83 89 91 90 90 93 99 111 111 120 126 135 147 141 154 189 206 213 233 253
234 236 246 254 266 282 291 282 274 289 317 336 349 350 359 25 42 49 53 51 53 55 55 57 60 62 67 69 72 78 81 82 88 93 98 100 101 109 118 124 127 146 157 166 186 222 238 248 259
235 239 245 253 261 270 278 280 279 277 295 310 320 331 339 1 23 36 41 48 47 50 51 53 57 62 66 65 67 69 73 77 89 106 112 114 108 120 140 146 151 194 212 217 225 242 252 259 268
235 239 245 252 258 261 268 277 282 268 270 288 296 295 295 305 334 12 23 27 31 39 39 40 47 57 60 58 57 55 54 56 67 107 140 149 153 159 194 207 244 253 248 247 246 253 260 268 275
234 239 246 251 257 260 261 268 272 261 267 276 277 275 280 286 297 317 349 352 1 18 25 22 23 43 50 42 33 24 27 27 23 234 212 227 233 242 253 250 254 256 260 256 258 268 271 274 276
238 242 246 251 256 259 257 262 262 267 270 273 273 268 274 280 284 293 300 307 308 322 336 342 346 348 7 7 359 355 357 357 353 302 252 260 260 263 261 255 255 263 271 272 271 281 281 283 282
237 240 245 251 255 253 255 260 262 267 269 271 273 270 273 271 277 287 282 281 280 284 289 303 304 291 305 321 324 319 321 318 310 294 286 279 277 272 267 262 261 261 266 272 275 278 281 284 285
235 237 242 248 252 252 255 260 260 261 267 270 271 270 267 265 269 272 270 271 273 274 277 284 297 290 295 294 296 291 291 295 296 298 301 291 283 279 274 269 262 263 269 274 274 276 279 282 285
235 238 242 246 250 255 257 260 260 259 260 268 273 282 275 265 263 264 262 266 270 271 277 284 283 283 288 291 291 292 294 294 291 287 290 291 286 282 281 274 268 267 271 276 279 280 281 283 286
238 240 243 246 251 256 259 261 260 260 260 265 273 278 276 264 258 257 260 263 265 271 275 280 281 280 282 285 286 285 285 285 284 283 284 287 287 283 280 278 275 271 272 276 279 280 283 283 284
Height
5872 5871 5870 5870 5869 5868 5866 5865 5864 5863 5863 5862 5861 5861 5861 5861 5862 5864 5861 5860 5860 5859 5859 5859 5858 5858 5858 5858 5858 5858 5859 5859 5859 5859 5860 5861 5862 5862 5863 5864 5865 5865 5866 5868 5869 5871 5873 5875 5877
5875 5873 5873 5872 5870 5869 5868 5866 5865 5865 5864 5863 5863 5862 5862 5862 5862 5862 5861 5860 5860 5860 5859 5859 5858 5858 5858 5858 5859 5859 5859 5859 5859 5859 5860 5861 5862 5863 5864 5865 5866 5866 5867 5868 5870 5871 5874 5876 5878
5877 5876 5875 5873 5871 5871 5869 5868 5867 5866 5866 5865 5864 5863 5863 5863 5863 5862 5861 5861 5861 5860 5860 5859 5859 5858 5858 5858 5859 5859 5859 5859 5859 5859 5859 5861 5862 5863 5864 5865 5867 5867 5868 5869 5870 5871 5874 5877 5879
5879 5879 5877 5876 5874 5873 5871 5869 5868 5868 5867 5866 5865 5865 5864 5864 5863 5863 5862 5862 5861 5861 5860 5860 5859 5859 5859 5859 5859 5859 5859 5859 5859 5859 5859 5861 5862 5864 5865 5866 5867 5868 5868 5869 5870 5871 5874 5877 5879
5881 5880 5879 5877 5876 5874 5872 5871 5870 5869 5868 5868 5867 5866 5865 5865 5864 5863 5863 5863 5862 5861 5861 5860 5859 5859 5859 5859 5859 5859 5860 5860 5859 5859 5860 5861 5862 5864 5865 5867 5868 5868 5869 5870 5871 5873 5875 5877 5879
5884 5882 5882 5879 5878 5876 5875 5873 5871 5870 5870 5869 5868 5867 5866 5866 5865 5864 5864 5863 5863 5862 5861 5860 5860 5860 5860 5860 5860 5860 5860 5860 5860 5860 5860 5861 5863 5864 5866 5867 5868 5869 5870 5871 5872 5873 5875 5877 5879
5886 5885 5883 5882 5880 5878 5877 5875 5874 5873 5872 5871 5870 5869 5868 5867 5867 5866 5865 5864 5863 5862 5862 5861 5860 5860 5860 5860 5860 5860 5860 5860 5861 5861 5861 5862 5863 5864 5866 5867 5869 5869 5870 5872 5873 5875 5877 5879 5880
5888 5888 5885 5884 5882 5881 5880 5878 5877 5876 5874 5873 5872 5871 5869 5869 5868 5867 5866 5865 5864 5863 5862 5862 5861 5861 5861 5861 5861 5861 5861 5861 5862 5862 5863 5863 5864 5864 5865 5867 5869 5870 5871 5873 5875 5877 5878 5880 5881
5890 5890 5887 5886 5884 5884 5882 5880 5880 5878 5877 5875 5873 5872 5871 5870 5869 5868 5867 5866 5865 5864 5863 5862 5862 5862 5862 5862 5862 5862 5862 5863 5863 5863 5864 5864 5865 5866 5867 5869 5871 5872 5873 5874 5876 5878 5879 5881 5882
5892 5891 5890 5889 5887 5886 5885 5883 5882 5880 5879 5877 5875 5874 5872 5871 5870 5869 5868 5867 5866 5865 5864 5864 5863 5863 5863 5863 5862 5863 5863 5864 5864 5865 5866 5866 5867 5868 5870 5871 5873 5874 5875 5876 5878 5879 5881 5882 5884
5894 5893 5892 5891 5889 5888 5887 5886 5884 5882 5881 5879 5878 5876 5874 5873 5872 5871 5870 5868 5867 5867 5866 5865 5864 5864 5864 5864 5864 5864 5864 5865 5866 5866 5867 5868 5869 5870 5872 5873 5874 5875 5876 5878 5879 5880 5881 5883 5884
5896 5895 5894 5893 5892 5891 5890 5888 5887 5885 5884 5882 5880 5878 5876 5875 5874 5872 5871 5870 5869 5868 5867 5866 5865 5865 5864 5864 5865 5865 5865 5866 5867 5868 5870 5870 5871 5872 5874 5875 5876 5877 5878 5879 5880 5881 5883 5884 5885
5897 5897 5896 5895 5894 5893 5892 5891 5889 5887 5886 5884 5882 5880 5878 5877 5875 5874 5872 5871 5870 5869 5868 5867 5866 5866 5866 5866 5866 5867 5867 5868 5869 5870 5871 5872 5873 5874 5875 5876 5877 5878 5879 5881 5881 5883 5884 5885 5886
5898 5898 5898 5897 5896 5895 5894 5893 5892 5890 5889 5887 5885 5883 5880 5878 5877 5875 5874 5873 5871 5870 5869 5869 5868 5868 5868 5868 5868 5869 5869 5870 5870 5871 5872 5874 5875 5876 5877 5878 5879 5880 5881 5882 5883 5884 5885 5886 5887
5899 5899 5899 5898 5897 5897 5896 5895 5894 5892 5891 5889 5887 5885 5882 5880 5878 5877 5875 5874 5873 5872 5871 5871 5870 5870 5870 5870 5870 5871 5871 5871 5872 5873 5874 5875 5876 5877 5878 5879 5880 5881 5882 5883 5884 5885 5886 5887 5887
5899 5900 5899 5899 5898 5898 5899 5897 5895 5893 5892 5890 5888 5886 5884 5882 5880 5878 5877 5876 5875 5874 5873 5873 5872 5872 5872 5872 5872 5873 5873 5873 5874 5875 5875 5876 5877 5878 5879 5880 5881 5882 5883 5884 5885 5886 5886 5887 5888
5899 5899 5899 5899 5899 5899 5898 5897 5896 5894 5893 5892 5890 5888 5886 5884 5882 5880 5879 5878 5877 5876 5875 5874 5874 5874 5874 5874 5874 5874 5875 5875 5875 5876 5877 5877 5878 5879 5880 5881 5882 5883 5884 5885 5885 5886 5886 5887 5887
5899 5899 5899 5899 5899 5899 5899 5898 5897 5895 5894 5893 5892 5889 5887 5886 5884 5882 5881 5880 5879 5878 5877 5876 5876 5876 5876 5876 5876 5876 5876 5877 5877 5878 5878 5878 5879 5880 5881 5882 5882 5883 5884 5884 5885 5886 5886 5887 5887
5898 5898 5898 5899 5899 5899 5899 5898 5897 5896 5895 5894 5893 5891 5889 5887 5886 5884 5883 5882 5881 5880 5879 5878 5878 5878 5878 5877 5877 5878 5878 5878 5879 5879 5880 5880 5880 5881 5881 5882 5883 5883 5884 5884 5885 5886 5886 5886 5887
5897 5897 5898 5898 5898 5898 5898 5898 5897 5897 5896 5895 5894 5892 5891 5889 5887 5886 5885 5884 5883 5882 5881 5880 5880 5879 5879 5879 5879 5879 5879 5880 5880 5880 5881 5881 5881 5882 5882 5883 5883 5884 5884 5884 5885 5885 5886 5886 5886
5895 5896 5897 5897 5897 5897 5898 5898 5898 5898 5897 5896 5894 5893 5892 5890 5888 5887 5887 5886 5885 5884 5883 5882 5882 5881 5881 5881 5880 5880 5881 5881 5881 5881 5882 5882 5882 5882 5883 5883 5884 5884 5884 5885 5885 5885 5886 5886 5886
5893 5895 5895 5895 5896 5896 5897 5897 5898 5897 5897 5896 5895 5894 5892 5891 5889 5888 5888 5887 5886 5886 5885 5884 5883 5883 5883 5882 5882 5882 5882 5882 5882 5882 5882 5883 5883 5883 5883 5884 5884 5884 5885 5885 5885 5885 5885 5886 5886
5891 5892 5893 5893 5894 5895 5895 5896 5897 5896 5896 5896 5895 5894 5892 5891 5890 5889 5888 5888 5887 5887 5886 5885 5885 5884 5884 5884 5884 5883 5883 5883 5883 5883 5883 5883 5883 5883 5884 5884 5884 5885 5885 5885 5885 5885 5885 5885 5885
5888 5890 5890 5891 5892 5893 5894 5895 5896 5895 5895 5895 5894 5893 5892 5891 5890 5889 5889 5888 5888 5887 5887 5886 5886 5885 5885 5885 5885 5884 5884 5883 5883 5883 5883 5883 5883 5883 5884 5884 5884 5884 5884 5884 5884 5884 5884 5884 5884
5884 5886 5888 5888 5889 5891 5892 5892 5894 5894 5893 5893 5893 5892 5892 5891 5890 5890 5889 5889 5888 5887 5887 5887 5886 5886 5885 5885 5885 5885 5884 5884 5883 5883 5883 5883 5883 5883 5883 5883 5883 5883 5884 5884 5884 5883 5883 5883 5883
5880 5883 5885 5886 5887 5888 5889 5890 5892 5892 5891 5891 5891 5891 5890 5890 5890 5889 5889 5888 5888 5887 5887 5887 5886 5886 5885 5885 5885 5885 5884 5884 5883 5883 5882 5883 5883 5883 5883 5882 5882 5882 5882 5882 5882 5882 5882 5881 5881
5876 5878 5881 5882 5883 5884 5885 5887 5889 5889 5889 5889 5889 5889 5889 5889 5888 5888 5887 5888 5887 5887 5886 5886 5885 5885 5885 5885 5884 5884 5884 5883 5883 5882 5882 5882 5882 5881 5881 5881 5881 5881 5881 5881 5881 5881 5880 5880 5879
5872 5874 5876 5877 5878 5879 5881 5883 5886 5886 5886 5887 5887 5887 5887 5887 5886 5886 5886 5886 5886 5886 5885 5885 5885 5885 5884 5884 5884 5883 5883 5883 5882 5882 5881 5881 5880 5880 5879 5879 5879 5879 5879 5879 5879 5879 5878 5878 5877
5867 5869 5871 5873 5874 5876 5877 5882 5882 5883 5884 5884 5884 5884 5884 5883 5883 5884 5884 5884 5884 5884 5884 5883 5883 5883 5883 5883 5882 5882 5882 5881 5881 5880 5880 5879 5879 5878 5877 5877 5877 5877 5877 5876 5876 5876 5875 5875 5874
5862 5864 5866 5869 5870 5871 5873 5879 5879 5879 5880 5881 5881 5881 5881 5880 5880 5881 5881 5881 5882 5882 5882 5881 5881 5881 5881 5881 5880 5880 5880 5879 5879 5878 5878 5877 5877 5876 5875 5875 5874 5874 5874 5873 5873 5872 5872 5871 5870